User: anonymous   Login
Location: Lourdes
(43.1000°N, 0.0500°W)
Time: 15:11:32
(UTC+00:00)
Language:

Cosmos 1238 Rocket - Orbit

View from above orbital plane
View from above orbital plane
View from above satellite
View from above satellite

Ground track
Ground track

The orbit data is extracted from the following two-line orbital elements,

1 12139U 81003B   21062.81158358  .00002442  00000-0  11186-3 0  9990
2 12139  82.9470  98.8481 0460253 118.3755 246.4654 14.58061272 44247
Epoch (UTC): 03 March 2021 19:28:40
Eccentricity: 0.0460253
inclination: 82.9470°
perigee height: 374 km
apogee height: 1025 km
right ascension of ascending node: 98.8481°
argument of perigee: 118.3755°
revolutions per day: 14.58061272
mean anomaly at epoch: 246.4654°
orbit number at epoch: 4424

The dashed part of the orbit path shows where the satellite is in the earth's shadow,  

DLR